DL7GAI-7 Weather Reports


Display with metric or nautical units.
time (UTC)temp
F
wind
direction
speed
MPH
gust
MPH
rain 1hr
in
rain 24hr
in
rain mn
in
humidity
%
barometer
mb
20260905081734 65 315 5.0 9.0 0.00 0.04 0.04 89 1021.4
20260905080327 66 270 4.0 8.0 0.02 0.04 0.04 86 1021.3
20260905075017 66 270 4.0 8.0 0.02 0.04 0.04 86 1021.3
20260905073658 66 270 4.0 8.0 0.02 0.04 0.04 86 1021.3
20260905072214 65 315 2.0 6.0 0.01 0.02 0.02 91 1020.9
20260905070854 65 315 2.0 6.0 0.01 0.02 0.02 91 1020.9
20260905065604 65 315 5.0 8.0 0.01 0.01 0.01 86 1020.8
20260905064247 65 315 5.0 8.0 0.01 0.01 0.01 86 1020.8
20260905062957 66 0 0.0 6.0 0.00 0.00 0.00 79 1020.3
20260905061747 66 0 0.0 6.0 0.00 0.00 0.00 79 1020.3
20260905060412 66 0 5.0 7.0 0.00 0.00 0.00 78 1020.1
20260905055117 66 0 5.0 7.0 0.00 0.00 0.00 78 1020.1
20260905053817 66 0 5.0 7.0 0.00 0.00 0.00 78 1020.1
20260905052522 67 315 6.0 7.0 0.00 0.00 0.00 75 1019.7
20260905051217 67 315 6.0 7.0 0.00 0.00 0.00 75 1019.7
20260905045907 65 315 6.0 7.0 0.00 0.00 0.00 80 1019.6
20260905044542 65 315 6.0 7.0 0.00 0.00 0.00 80 1019.6
20260905043257 67 270 3.0 6.0 0.00 0.00 0.00 76 1019.0
20260905042018 67 270 3.0 6.0 0.00 0.00 0.00 76 1019.0
20260905040632 67 270 3.0 6.0 0.00 0.00 0.00 76 1019.0
20260905035257 69 315 5.0 9.0 0.00 0.00 0.00 70 1018.4
20260905033957 69 315 5.0 9.0 0.00 0.00 0.00 70 1018.4
20260905032637 71 315 7.0 9.0 0.00 0.00 0.00 62 1017.6
20260905031242 71 315 7.0 9.0 0.00 0.00 0.00 62 1017.6
20260905030022 69 315 7.0 11.0 0.00 0.00 0.00 67 1017.5
20260905024647 69 315 7.0 11.0 0.00 0.00 0.00 67 1017.5
20260905023307 70 315 6.0 11.0 0.00 0.00 0.00 65 1017.2
20260905021922 70 315 6.0 11.0 0.00 0.00 0.00 65 1017.2
20260905020632 70 315 6.0 11.0 0.00 0.00 0.00 65 1017.2
20260905015327 72 315 6.0 9.0 0.00 0.00 0.00 59 1016.9
20260905014002 72 315 6.0 9.0 0.00 0.00 0.00 59 1016.9
20260905012722 70 315 6.0 9.0 0.00 0.00 0.00 65 1017.1
20260905011402 70 315 6.0 9.0 0.00 0.00 0.00 65 1017.1
20260905010037 68 315 6.0 7.0 0.00 0.00 0.00 72 1017.1
20260905004647 68 315 6.0 7.0 0.00 0.00 0.00 72 1017.1
20260905003257 67 0 4.0 6.0 0.00 0.00 0.00 75 1017.0
20260905001952 67 0 4.0 6.0 0.00 0.00 0.00 75 1017.0
20260905000507 67 0 2.0 5.0 0.00 0.00 0.00 74 1017.0
20260904235123 67 0 2.0 5.0 0.00 0.00 0.00 74 1017.0
20260904233806 67 0 2.0 5.0 0.00 0.00 0.00 74 1017.0
20260904232356 68 0 2.0 4.0 0.00 0.00 0.00 71 1016.7
20260904230937 68 0 2.0 4.0 0.00 0.00 0.00 71 1016.7
20260904225552 69 45 2.0 10.0 0.00 0.00 0.00 67 1016.7
20260904224143 69 45 2.0 10.0 0.00 0.00 0.00 67 1016.7
20260904222912 74 315 4.0 10.0 0.00 0.00 0.00 56 1016.0
20260904221632 74 315 4.0 10.0 0.00 0.00 0.00 56 1016.0
20260904220347 76 315 6.0 11.0 0.00 0.00 0.00 53 1015.8
20260904215112 76 315 6.0 11.0 0.00 0.00 0.00 53 1015.8
20260904213752 76 315 6.0 11.0 0.00 0.00 0.00 53 1015.8
20260904212443 76 315 7.0 11.0 0.00 0.00 0.00 55 1015.8
20260904211047 76 315 7.0 11.0 0.00 0.00 0.00 55 1015.8
20260904205612 78 315 7.0 11.0 0.00 0.00 0.00 49 1015.4
20260904204402 78 315 7.0 11.0 0.00 0.00 0.00 49 1015.4
20260904203102 77 315 5.0 9.0 0.00 0.00 0.00 56 1015.2
20260904201648 77 315 5.0 9.0 0.00 0.00 0.00 56 1015.2
20260904200347 74 315 2.0 6.0 0.00 0.00 0.00 60 1015.0
20260904194937 74 315 2.0 6.0 0.00 0.00 0.00 60 1015.0
20260904193557 78 225 3.0 6.0 0.00 0.00 0.00 53 1014.4
20260904192247 78 225 3.0 6.0 0.00 0.00 0.00 53 1014.4
20260904190847 78 225 3.0 6.0 0.00 0.00 0.00 53 1014.4
20260904185422 82 270 4.0 10.0 0.00 0.00 0.00 45 1013.6
20260904184152 82 270 4.0 10.0 0.00 0.00 0.00 45 1013.6
20260904182842 84 270 6.0 10.0 0.00 0.00 0.00 43 1013.1
20260904181612 84 270 6.0 10.0 0.00 0.00 0.00 43 1013.1
20260904180207 85 225 6.0 17.0 0.00 0.00 0.00 40 1013.2
20260904174911 85 225 6.0 17.0 0.00 0.00 0.00 40 1013.2
20260904173602 87 270 7.0 17.0 0.00 0.00 0.00 37 1013.1
20260904172337 87 270 7.0 17.0 0.00 0.00 0.00 37 1013.1
20260904171017 87 270 7.0 17.0 0.00 0.00 0.00 37 1013.1
20260904165544 87 270 9.0 17.0 0.00 0.00 0.00 34 1013.2
20260904164117 87 270 9.0 17.0 0.00 0.00 0.00 34 1013.2
20260904162805 87 270 9.0 17.0 0.00 0.00 0.00 35 1013.5
20260904161337 87 270 9.0 17.0 0.00 0.00 0.00 35 1013.5
20260904155922 87 270 12.0 22.0 0.00 0.00 0.00 33 1013.8
20260904154507 87 270 12.0 22.0 0.00 0.00 0.00 33 1013.8
20260904153257 86 270 12.0 22.0 0.00 0.00 0.00 32 1014.1
20260904151852 86 270 12.0 22.0 0.00 0.00 0.00 32 1014.1
20260904150522 86 225 11.0 20.0 0.00 0.00 0.00 32 1014.5
20260904145127 86 225 11.0 20.0 0.00 0.00 0.00 32 1014.5
20260904143717 86 225 11.0 20.0 0.00 0.00 0.00 32 1014.5
20260904142417 85 270 11.0 19.0 0.00 0.00 0.00 33 1014.7
20260904141046 85 270 11.0 19.0 0.00 0.00 0.00 33 1014.7
20260904135832 84 270 9.0 16.0 0.00 0.00 0.00 35 1015.4
20260904134532 84 270 9.0 16.0 0.00 0.00 0.00 35 1015.4
20260904133227 83 270 8.0 15.0 0.00 0.00 0.00 37 1015.8
20260904131857 83 270 8.0 15.0 0.00 0.00 0.00 37 1015.8
20260904130527 83 270 9.0 15.0 0.00 0.00 0.00 39 1016.1
20260904125247 83 270 9.0 15.0 0.00 0.00 0.00 39 1016.1
20260904123922 83 270 9.0 15.0 0.00 0.00 0.00 39 1016.1
20260904122557 82 270 7.0 13.0 0.00 0.00 0.00 38 1016.7
20260904121227 82 270 7.0 13.0 0.00 0.00 0.00 38 1016.7
20260904115807 80 270 7.0 10.0 0.00 0.00 0.00 42 1017.4
20260904114527 80 270 7.0 10.0 0.00 0.00 0.00 42 1017.4
20260904113102 77 270 7.0 10.0 0.00 0.00 0.00 45 1018.1
20260904111630 77 270 7.0 10.0 0.00 0.00 0.00 45 1018.1
20260904110257 76 270 5.0 9.0 0.00 0.00 0.00 47 1018.7
20260904105017 76 270 5.0 9.0 0.00 0.00 0.00 47 1018.7
20260904103632 76 270 5.0 9.0 0.00 0.00 0.00 47 1018.7
20260904102323 75 270 5.0 9.0 0.00 0.00 0.00 49 1019.1
20260904101007 75 270 5.0 9.0 0.00 0.00 0.00 49 1019.1
20260904095622 74 180 2.0 6.0 0.00 0.00 0.00 56 1019.4
20260904094302 74 180 2.0 6.0 0.00 0.00 0.00 56 1019.4
20260904092857 72 225 2.0 5.0 0.00 0.00 0.00 57 1019.7
20260904091622 72 225 2.0 5.0 0.00 0.00 0.00 57 1019.7
20260904090212 32 0 0.0 0.0 0.00 0.00 0.00 1
20260904084902 32 0 0.0 0.0 0.00 0.00 0.00 1
20260904083627 32 0 0.0 0.0 0.00 0.00 0.00 1
20260904082312 32 0 0.0 0.0 0.00 0.00 0.00 1